Wind_Speed
13 13 13 13 13 12 11 10 9 9 8 8 8 9 9 9 10 11 12 14 15 17 19 22 24 26 28 30 33 35 37 39 42 44 47 49 51 53 55 57 59 61 64 68
13 13 14 14 14 13 12 11 10 9 9 8 9 9 10 10 10 11 13 14 15 17 19 22 24 27 29 31 33 36 38 41 43 46 48 51 53 55 57 58 60 63 66 69
14 14 14 15 15 14 13 12 11 10 10 10 10 10 11 11 12 13 14 15 16 18 20 22 25 27 30 32 35 37 40 42 45 47 50 52 55 57 59 61 62 64 67 70
15 15 15 15 16 15 14 14 13 12 11 11 12 12 12 13 13 14 15 16 18 19 21 23 25 28 31 33 36 39 42 44 47 49 52 54 57 59 61 62 64 66 68 71
15 16 16 16 17 16 16 15 15 14 14 13 14 14 14 15 15 16 17 19 20 21 22 24 26 29 32 35 37 40 43 46 49 51 54 56 59 61 63 64 65 67 69 71
16 17 17 17 18 17 17 17 17 17 17 16 16 17 16 17 18 19 20 21 22 23 24 26 28 31 33 36 39 42 45 48 51 53 55 58 60 62 64 66 66 68 70 71
17 18 18 18 18 19 19 19 19 19 19 19 19 19 18 19 20 21 22 23 24 26 27 28 31 33 35 38 41 43 46 49 52 55 57 59 62 64 66 67 68 68 70 71
17 18 19 19 20 20 20 21 22 23 22 21 22 22 21 22 22 23 24 26 27 28 29 31 33 35 37 40 42 45 47 50 53 56 58 61 63 65 67 68 69 69 70 71
19 19 20 21 21 22 22 22 24 25 25 25 25 24 23 24 25 26 27 28 29 30 31 33 35 37 39 42 44 46 49 51 54 57 59 62 64 66 68 70 70 70 70 71
22 21 21 22 23 23 24 24 25 27 28 29 28 27 26 26 28 29 30 30 31 33 34 35 37 39 42 44 46 48 50 52 54 57 60 62 65 67 69 71 71 70 70 71
24 23 22 23 24 25 25 26 27 29 31 32 32 28 29 29 30 31 32 33 34 35 37 38 40 42 44 46 48 50 52 53 55 58 60 63 66 68 70 71 72 71 70 70
26 25 24 25 26 27 27 28 29 31 33 34 36 31 30 32 33 34 34 35 37 38 39 41 42 44 46 48 50 51 53 54 56 58 61 63 66 68 70 71 72 71 70 70
27 27 27 26 27 29 29 29 31 34 36 36 38 34 31 34 36 37 38 39 39 40 42 43 45 47 48 50 51 53 54 56 57 58 61 63 66 68 70 71 72 72 70 69
29 29 29 29 30 32 31 31 33 37 38 39 38 36 32 35 39 41 42 42 43 44 45 46 47 49 50 52 53 54 55 57 57 59 60 63 66 68 70 71 72 72 70 69
32 31 31 31 32 36 35 33 34 38 39 42 41 40 36 38 42 43 44 46 46 47 48 49 50 51 52 53 55 55 56 57 58 59 60 63 65 68 70 71 71 71 70 69
35 35 34 33 34 38 38 35 36 39 41 43 44 43 39 43 45 46 46 48 49 50 51 52 52 53 54 55 56 57 57 58 58 59 60 62 65 67 69 70 70 70 70 69
36 38 39 38 37 40 39 36 38 40 41 43 45 44 44 46 48 48 49 50 51 52 53 53 54 55 56 56 57 57 57 58 59 59 60 62 64 66 68 70 70 70 69 68
39 39 42 43 43 43 39 38 39 41 41 42 44 45 47 48 49 49 51 52 52 53 54 55 56 56 57 57 58 58 57 58 59 59 60 62 64 65 67 68 69 69 68 67
40 42 44 46 47 48 41 39 41 43 42 42 45 46 48 50 51 50 51 53 54 55 56 57 57 58 58 58 58 58 58 59 59 60 60 62 63 64 66 67 67 68 67 66
43 44 46 48 50 50 45 44 44 46 45 45 46 47 49 52 53 53 53 55 56 57 58 59 59 59 59 59 59 59 59 60 60 60 60 61 62 63 65 66 66 66 66 65
47 48 49 50 52 52 47 47 47 47 47 48 50 51 53 55 57 57 58 59 60 61 62 62 62 61 61 61 61 61 60 60 61 60 60 61 62 63 63 64 65 65 65 64
51 52 52 52 55 53 49 50 49 50 51 52 54 55 58 59 60 61 62 62 63 64 64 65 65 64 63 63 64 63 62 62 62 61 60 61 62 62 62 63 63 63 63 63
54 54 55 57 57 54 53 54 53 55 56 57 58 59 61 63 64 64 65 65 65 66 66 66 66 65 64 64 64 64 63 63 62 61 61 61 61 62 61 61 61 61 61 61
56 56 57 58 57 55 56 56 57 59 62 62 63 63 64 66 66 67 67 66 67 66 66 66 66 65 64 64 64 63 63 63 62 61 60 61 61 61 60 59 60 60 59 59
54 54 56 57 55 57 57 58 60 62 63 64 64 65 66 67 67 67 67 67 66 66 65 65 64 64 63 62 62 61 61 61 60 60 59 59 59 59 58 58 58 58 58 58
50 52 55 57 54 59 60 60 62 63 63 64 65 64 64 65 65 65 64 63 63 62 62 62 61 60 60 59 58 58 58 58 58 58 58 58 57 57 56 56 56 57 56 56
Wind_Direction
282 284 287 292 294 295 292 287 280 276 282 288 293 298 303 310 317 323 328 331 333 335 337 339 339 338 338 338 338 338 338 337 337 337 337 336 335 333 331 329 327 327 326 327
280 281 285 286 286 284 283 281 279 279 283 285 288 293 299 306 314 321 326 330 333 335 338 340 340 341 341 340 340 339 339 338 338 338 338 338 337 336 334 332 330 330 329 329
279 279 281 280 279 280 281 280 279 278 279 281 284 289 297 304 311 317 322 326 330 333 336 339 340 341 342 342 342 342 341 341 340 340 339 339 339 338 337 335 333 332 332 332
276 278 279 279 278 279 279 278 278 277 277 279 284 291 297 302 308 313 317 322 328 332 335 337 339 341 341 341 342 343 343 343 342 342 341 340 340 339 338 337 335 334 334 334
275 277 279 278 277 277 276 276 276 276 275 277 283 289 296 301 305 311 315 320 326 331 333 335 337 339 340 341 342 342 343 343 343 343 343 342 341 340 339 338 337 336 336 336
276 278 278 277 276 275 275 274 274 274 275 277 281 286 293 298 303 309 314 319 324 328 331 333 335 337 338 340 341 341 342 343 343 343 343 342 341 341 340 339 338 338 337 337
278 278 277 275 275 275 273 273 274 273 274 277 281 285 293 297 302 307 312 316 321 325 328 331 332 334 336 337 339 340 341 341 342 342 342 342 342 341 341 340 340 339 338 338
279 278 277 276 275 274 273 272 273 275 276 277 280 286 293 297 301 305 309 313 317 321 324 327 329 330 332 334 336 337 338 339 340 341 341 341 342 342 342 341 341 340 339 339
281 278 278 277 276 275 273 272 273 274 276 277 281 287 291 295 299 302 306 309 314 317 320 322 325 327 329 331 333 334 336 337 338 339 340 341 341 341 342 342 341 341 340 340
281 279 278 277 276 275 274 274 274 275 277 279 281 286 291 293 296 299 303 307 310 314 317 319 321 324 326 328 330 331 333 335 336 337 338 339 340 341 341 342 342 341 341 341
282 281 279 278 277 276 276 275 276 277 279 281 284 287 291 293 295 298 301 304 308 311 314 316 318 320 322 324 326 329 331 332 334 335 337 338 339 340 341 342 342 342 341 341
284 283 281 279 279 277 276 276 277 278 280 282 285 291 292 293 295 297 299 301 304 307 310 313 315 317 319 321 324 326 328 330 331 333 335 336 338 339 340 341 342 342 342 342
284 284 283 280 279 277 277 277 278 279 281 284 287 293 294 293 294 295 296 298 301 304 307 310 312 314 317 319 321 324 326 327 329 331 333 334 336 337 339 340 341 342 342 342
284 284 284 283 281 279 278 278 279 281 284 285 288 291 289 290 290 292 294 297 300 302 305 307 310 312 314 316 319 321 323 325 327 329 331 333 334 336 338 339 340 341 342 342
284 284 283 283 282 281 281 281 281 283 285 287 290 290 292 288 286 289 292 295 298 300 303 305 307 309 312 314 316 318 321 323 325 327 329 330 333 334 336 338 339 340 341 342
285 285 284 282 281 281 283 285 284 284 285 287 288 290 291 286 287 289 292 294 296 298 301 303 305 307 309 312 314 316 319 321 323 325 327 328 331 333 335 336 338 339 341 342
283 285 285 284 282 281 283 286 284 284 285 286 287 289 287 286 288 290 291 292 294 297 299 300 302 305 307 310 312 314 317 318 320 323 325 327 329 331 333 335 337 339 340 341
284 284 285 285 285 283 288 288 287 286 286 287 287 286 286 286 287 289 290 291 293 295 296 298 300 303 305 308 310 312 314 316 318 320 322 325 327 329 331 333 336 337 339 340
284 284 285 286 286 287 289 290 289 288 287 287 287 286 286 286 286 288 289 290 292 293 295 297 299 302 304 306 308 310 312 314 316 318 320 323 325 327 329 331 334 336 338 339
282 282 283 285 286 288 293 293 292 291 290 288 288 287 286 286 286 287 287 288 290 291 293 296 298 301 303 305 307 309 310 312 314 316 318 320 323 325 328 330 332 335 336 338
283 283 284 286 287 288 293 293 292 292 291 289 288 287 286 286 287 288 289 290 291 292 294 296 298 300 302 304 305 307 309 310 312 314 316 318 320 323 326 328 330 333 335 337
283 284 285 285 285 289 291 289 289 288 287 286 285 285 285 285 287 288 289 290 291 293 295 296 298 300 302 303 304 306 307 308 310 312 313 315 318 321 323 326 329 331 334 336
282 283 283 283 285 287 287 287 287 286 284 284 283 284 284 285 286 288 289 291 292 293 295 296 297 299 300 301 302 304 305 306 308 310 311 313 316 319 321 324 327 330 332 335
282 282 283 283 285 286 285 285 284 283 282 283 283 284 284 286 287 289 290 291 292 293 294 295 296 297 299 299 301 302 303 304 306 308 310 312 315 318 320 322 325 328 331 333
286 286 285 285 286 284 282 281 281 280 281 282 282 283 285 287 288 290 291 292 293 294 295 295 295 296 297 298 299 300 301 302 304 305 308 311 314 317 319 321 323 327 329 332
290 288 286 287 287 285 284 283 282 282 283 284 286 287 288 288 289 290 292 293 294 295 295 295 296 296 296 297 298 299 299 300 302 304 306 308 311 315 317 319 322 325 328 331
Height
5886 5885 5883 5881 5879 5878 5876 5874 5872 5871 5868 5866 5864 5862 5860 5857 5855 5852 5849 5846 5842 5838 5834 5829 5824 5819 5814 5808 5802 5795 5788 5781 5773 5765 5756 5747 5737 5727 5717 5706 5694 5682 5670 5656
5883 5882 5880 5878 5876 5875 5873 5871 5869 5867 5865 5863 5861 5859 5857 5854 5852 5849 5846 5842 5839 5834 5830 5825 5820 5814 5809 5803 5796 5789 5782 5774 5766 5757 5748 5738 5728 5717 5706 5694 5682 5670 5656 5642
5879 5879 5876 5875 5873 5872 5870 5868 5866 5864 5862 5860 5859 5857 5854 5851 5848 5845 5842 5839 5835 5830 5825 5820 5815 5810 5804 5797 5791 5784 5776 5767 5759 5749 5740 5730 5719 5708 5696 5683 5670 5657 5643 5627
5876 5875 5873 5871 5869 5868 5866 5864 5862 5860 5859 5857 5855 5853 5851 5848 5844 5841 5838 5835 5830 5826 5821 5815 5810 5804 5798 5792 5785 5777 5769 5760 5751 5741 5731 5721 5710 5698 5685 5672 5659 5645 5630 5614
5872 5871 5869 5868 5866 5864 5862 5860 5859 5857 5854 5853 5851 5848 5847 5844 5840 5837 5834 5830 5825 5821 5816 5810 5805 5799 5793 5786 5778 5770 5762 5753 5743 5734 5723 5712 5700 5688 5675 5662 5648 5633 5618 5602
5868 5867 5865 5863 5861 5860 5858 5856 5855 5852 5850 5850 5847 5844 5843 5840 5836 5833 5829 5825 5820 5815 5810 5805 5799 5793 5786 5779 5771 5763 5755 5745 5736 5726 5715 5703 5692 5679 5666 5652 5637 5622 5606 5590
5864 5863 5861 5859 5857 5856 5854 5852 5850 5848 5846 5845 5842 5839 5839 5835 5831 5828 5824 5819 5814 5809 5804 5798 5792 5786 5779 5772 5764 5756 5747 5738 5728 5718 5707 5695 5683 5670 5656 5642 5627 5612 5596 5579
5860 5859 5856 5855 5853 5851 5849 5848 5846 5844 5841 5839 5836 5834 5834 5830 5826 5822 5818 5813 5808 5803 5798 5792 5786 5779 5772 5765 5757 5749 5740 5730 5720 5710 5698 5687 5674 5661 5647 5633 5618 5603 5587 5570
5855 5854 5852 5850 5848 5846 5844 5842 5840 5838 5835 5833 5831 5829 5828 5824 5820 5816 5812 5807 5802 5797 5791 5785 5779 5772 5765 5757 5749 5741 5732 5722 5712 5701 5690 5678 5666 5652 5639 5624 5609 5593 5577 5561
5849 5849 5848 5845 5843 5841 5839 5837 5835 5832 5828 5826 5825 5823 5822 5818 5814 5810 5806 5800 5795 5790 5784 5778 5771 5765 5757 5750 5742 5733 5724 5714 5704 5693 5682 5670 5657 5644 5630 5615 5600 5584 5569 5553
5844 5843 5843 5840 5838 5835 5834 5832 5828 5825 5823 5819 5817 5820 5816 5811 5807 5803 5798 5793 5787 5782 5776 5770 5764 5757 5749 5742 5733 5725 5715 5706 5696 5685 5674 5662 5649 5636 5621 5607 5592 5576 5560 5544
5838 5837 5836 5835 5832 5829 5827 5825 5822 5820 5817 5812 5808 5813 5809 5804 5799 5794 5790 5785 5780 5774 5769 5762 5756 5749 5741 5733 5725 5716 5707 5697 5687 5677 5665 5653 5641 5627 5613 5599 5584 5568 5553 5537
5832 5831 5830 5828 5828 5824 5821 5818 5815 5812 5809 5805 5801 5805 5801 5796 5790 5786 5781 5777 5771 5766 5760 5754 5747 5740 5732 5724 5716 5707 5698 5688 5679 5668 5657 5645 5632 5619 5605 5591 5576 5560 5545 5529
5825 5824 5823 5822 5818 5815 5814 5812 5809 5804 5801 5798 5795 5794 5795 5788 5781 5776 5772 5767 5762 5757 5751 5745 5738 5731 5723 5715 5707 5698 5689 5680 5670 5659 5648 5637 5624 5611 5597 5583 5568 5553 5538 5522
5818 5817 5815 5813 5810 5806 5805 5805 5802 5796 5793 5789 5787 5784 5784 5779 5771 5767 5762 5757 5752 5747 5741 5735 5728 5721 5714 5706 5697 5689 5680 5670 5661 5650 5639 5628 5616 5603 5589 5575 5561 5546 5531 5516
5810 5808 5806 5806 5803 5798 5796 5797 5793 5789 5785 5781 5777 5774 5774 5766 5761 5757 5753 5747 5742 5737 5731 5724 5718 5711 5703 5695 5687 5679 5670 5661 5651 5641 5631 5619 5607 5595 5582 5568 5553 5539 5524 5509
5802 5799 5796 5795 5794 5789 5789 5789 5784 5780 5776 5772 5767 5765 5761 5756 5751 5746 5742 5736 5731 5726 5720 5713 5706 5699 5692 5685 5677 5669 5660 5651 5642 5632 5621 5610 5598 5586 5573 5560 5546 5532 5517 5502
5794 5790 5786 5783 5783 5779 5784 5778 5774 5770 5768 5762 5757 5753 5749 5744 5740 5736 5730 5724 5719 5714 5708 5701 5695 5688 5681 5674 5666 5658 5650 5641 5631 5622 5611 5601 5590 5578 5565 5552 5539 5525 5511 5496
5784 5780 5776 5773 5769 5767 5771 5768 5763 5758 5757 5752 5745 5741 5736 5731 5728 5725 5718 5712 5706 5701 5695 5689 5683 5677 5670 5662 5654 5647 5639 5630 5621 5611 5602 5591 5581 5569 5557 5545 5532 5518 5504 5490
5774 5770 5767 5763 5758 5755 5761 5755 5750 5746 5744 5739 5733 5728 5723 5717 5714 5712 5707 5700 5694 5688 5682 5676 5670 5664 5658 5650 5643 5635 5627 5619 5610 5601 5591 5582 5571 5560 5549 5537 5524 5511 5498 5484
5761 5758 5756 5752 5745 5744 5749 5743 5737 5734 5731 5726 5720 5714 5709 5704 5699 5696 5691 5686 5680 5674 5669 5663 5657 5652 5645 5638 5630 5623 5615 5607 5598 5590 5581 5572 5562 5551 5541 5529 5517 5504 5491 5478
5748 5746 5744 5739 5733 5735 5735 5729 5725 5720 5716 5711 5705 5700 5694 5689 5685 5680 5676 5671 5665 5660 5655 5649 5643 5638 5632 5624 5617 5610 5603 5595 5587 5579 5570 5561 5552 5542 5532 5521 5510 5498 5485 5472
5735 5734 5729 5725 5724 5723 5719 5715 5711 5705 5699 5695 5689 5685 5679 5673 5669 5665 5661 5657 5651 5646 5640 5634 5628 5623 5618 5611 5603 5597 5590 5582 5575 5567 5559 5551 5542 5533 5523 5513 5502 5491 5479 5466
5721 5718 5714 5710 5709 5709 5704 5699 5694 5688 5681 5677 5673 5669 5663 5657 5653 5649 5645 5641 5636 5631 5625 5619 5613 5608 5603 5596 5590 5583 5576 5569 5562 5555 5548 5540 5532 5524 5514 5505 5494 5484 5472 5460
5706 5702 5697 5693 5694 5689 5686 5682 5676 5670 5665 5660 5657 5653 5647 5641 5637 5633 5628 5624 5619 5614 5609 5603 5597 5592 5587 5581 5576 5569 5562 5556 5549 5543 5537 5529 5522 5514 5506 5497 5487 5477 5466 5454
5694 5688 5681 5676 5677 5668 5665 5662 5657 5652 5648 5644 5640 5637 5634 5627 5621 5617 5612 5608 5603 5598 5593 5587 5582 5577 5572 5566 5561 5555 5548 5542 5537 5531 5525 5519 5512 5505 5497 5488 5480 5470 5460 5448